Time,TemperatureF,DewpointF,PressureIn,WindDirection,WindDirectionDegrees,WindSpeedMPH,WindSpeedGustMPH,Humidity,HourlyPrecipIn,Conditions,Clouds,dailyrainin,SoftwareType,DateUTC
2013-01-03 00:01:00,24.8,23.1,30.42,WNW,285,2.0,2.0,93,0.00,,,0.00,Wunderground v.1.15,2013-01-03 06:01:00,
2013-01-03 00:12:00,24.8,23.1,30.42,WNW,300,3.0,4.0,93,0.00,,,0.00,Wunderground v.1.15,2013-01-03 06:12:00,
2013-01-03 00:21:00,25.0,23.5,30.42,NW,309,5.0,5.0,94,0.00,,,0.00,Wunderground v.1.15,2013-01-03 06:21:00,
2013-01-03 00:31:00,25.3,23.3,30.42,WNW,298,6.0,7.0,92,0.00,,,0.00,Wunderground v.1.15,2013-01-03 06:31:00,
2013-01-03 01:11:00,25.4,22.3,30.43,WNW,298,9.0,9.0,88,0.00,,,0.00,Wunderground v.1.15,2013-01-03 07:11:00,
2013-01-03 01:41:00,24.8,21.5,30.43,NW,321,6.0,6.0,87,0.00,,,0.00,Wunderground v.1.15,2013-01-03 07:41:00,
2013-01-03 01:51:00,24.3,21.0,30.44,NNW,337,5.0,5.0,87,0.00,,,0.00,Wunderground v.1.15,2013-01-03 07:51:00,
2013-01-03 02:01:00,23.7,20.4,30.44,WNW,298,5.0,5.0,87,0.00,,,0.00,Wunderground v.1.15,2013-01-03 08:01:00,
2013-01-03 02:11:00,23.2,20.2,30.44,NW,309,6.0,7.0,88,0.00,,,0.00,Wunderground v.1.15,2013-01-03 08:11:00,
2013-01-03 02:22:00,23.1,20.1,30.44,WNW,294,6.0,6.0,88,0.00,,,0.00,Wunderground v.1.15,2013-01-03 08:22:00,
2013-01-03 02:32:00,23.0,20.0,30.44,NW,314,5.0,5.0,88,0.00,,,0.00,Wunderground v.1.15,2013-01-03 08:32:00,
2013-01-03 02:42:00,22.8,19.8,30.44,NW,309,5.0,6.0,88,0.00,,,0.00,Wunderground v.1.15,2013-01-03 08:42:00,
2013-01-03 02:52:00,22.6,19.6,30.44,NW,309,5.0,6.0,88,0.00,,,0.00,Wunderground v.1.15,2013-01-03 08:52:00,
2013-01-03 03:02:00,22.3,19.3,30.46,NW,307,5.0,6.0,88,0.00,,,0.00,Wunderground v.1.15,2013-01-03 09:02:00,
2013-01-03 03:12:00,22.1,19.1,30.46,WNW,298,5.0,6.0,88,0.00,,,0.00,Wunderground v.1.15,2013-01-03 09:12:00,
2013-01-03 03:22:00,21.9,18.9,30.47,WNW,293,5.0,5.0,88,0.00,,,0.00,Wunderground v.1.15,2013-01-03 09:22:00,
2013-01-03 03:32:00,21.6,18.6,30.48,WNW,293,6.0,6.0,88,0.00,,,0.00,Wunderground v.1.15,2013-01-03 09:32:00,
2013-01-03 03:42:00,21.7,18.7,30.47,WNW,300,6.0,6.0,88,0.00,,,0.00,Wunderground v.1.15,2013-01-03 09:42:00,
2013-01-03 03:52:00,21.7,18.7,30.47,West,281,6.0,7.0,88,0.00,,,0.00,Wunderground v.1.15,2013-01-03 09:52:00,
2013-01-03 04:02:00,21.7,18.4,30.48,WNW,285,6.0,6.0,87,0.00,,,0.00,Wunderground v.1.15,2013-01-03 10:02:00,
2013-01-03 04:12:00,21.7,18.4,30.47,WNW,284,4.0,4.0,87,0.00,,,0.00,Wunderground v.1.15,2013-01-03 10:12:00,
2013-01-03 04:22:00,21.4,18.1,30.47,WNW,288,2.0,4.0,87,0.00,,,0.00,Wunderground v.1.15,2013-01-03 10:22:00,
2013-01-03 04:32:00,20.8,17.5,30.47,West,264,3.0,4.0,87,0.00,,,0.00,Wunderground v.1.15,2013-01-03 10:32:00,
2013-01-03 04:42:00,20.3,17.6,30.48,West,281,3.0,3.0,89,0.00,,,0.00,Wunderground v.1.15,2013-01-03 10:42:00,
2013-01-03 04:52:00,20.0,17.3,30.48,WNW,287,3.0,5.0,89,0.00,,,0.00,Wunderground v.1.15,2013-01-03 10:52:00,
2013-01-03 05:02:00,19.8,17.1,30.48,WNW,285,4.0,5.0,89,0.00,,,0.00,Wunderground v.1.15,2013-01-03 11:02:00,
2013-01-03 05:12:00,20.1,17.4,30.49,WNW,290,5.0,5.0,89,0.00,,,0.00,Wunderground v.1.15,2013-01-03 11:12:00,
2013-01-03 05:22:00,20.6,17.6,30.49,WNW,300,7.0,8.0,88,0.00,,,0.00,Wunderground v.1.15,2013-01-03 11:22:00,
2013-01-03 05:31:00,20.8,17.5,30.49,NW,312,7.0,8.0,87,0.00,,,0.00,Wunderground v.1.15,2013-01-03 11:31:00,
2013-01-03 05:41:00,20.9,17.4,30.49,NW,309,9.0,9.0,86,0.00,,,0.00,Wunderground v.1.15,2013-01-03 11:41:00,
2013-01-03 05:52:00,20.6,16.8,30.50,WNW,297,9.0,11.0,85,0.00,,,0.00,Wunderground v.1.15,2013-01-03 11:52:00,
2013-01-03 06:01:00,20.2,16.4,30.50,NW,310,10.0,13.0,85,0.00,,,0.00,Wunderground v.1.15,2013-01-03 12:01:00,
2013-01-03 06:11:00,19.9,16.1,30.50,WNW,297,10.0,12.0,85,0.00,,,0.00,Wunderground v.1.15,2013-01-03 12:11:00,
2013-01-03 06:21:00,19.6,15.8,30.51,WNW,303,10.0,14.0,85,0.00,,,0.00,Wunderground v.1.15,2013-01-03 12:21:00,
2013-01-03 06:31:00,19.5,15.7,30.51,WNW,297,10.0,10.0,85,0.00,,,0.00,Wunderground v.1.15,2013-01-03 12:31:00,
2013-01-03 06:41:00,19.4,15.9,30.52,WNW,300,9.0,13.0,86,0.00,,,0.00,Wunderground v.1.15,2013-01-03 12:41:00,
2013-01-03 06:51:00,19.8,16.3,30.52,NW,310,8.0,8.0,86,0.00,,,0.00,Wunderground v.1.15,2013-01-03 12:51:00,
2013-01-03 07:01:00,19.8,16.3,30.52,NW,304,7.0,7.0,86,0.00,,,0.00,Wunderground v.1.15,2013-01-03 13:01:00,
2013-01-03 07:12:00,19.6,16.1,30.52,WNW,299,7.0,9.0,86,0.00,,,0.00,Wunderground v.1.15,2013-01-03 13:12:00,
2013-01-03 07:22:00,19.8,16.6,30.52,NW,310,7.0,7.0,87,0.00,,,0.00,Wunderground v.1.15,2013-01-03 13:22:00,
2013-01-03 07:32:00,19.9,16.7,30.52,NW,317,6.0,6.0,87,0.00,,,0.00,Wunderground v.1.15,2013-01-03 13:32:00,
2013-01-03 07:42:00,20.0,16.8,30.53,NW,305,6.0,7.0,87,0.00,,,0.00,Wunderground v.1.15,2013-01-03 13:42:00,
2013-01-03 07:52:00,19.9,16.4,30.53,WNW,299,6.0,6.0,86,0.00,,,0.00,Wunderground v.1.15,2013-01-03 13:52:00,
2013-01-03 08:02:00,19.4,15.9,30.53,WNW,291,6.0,6.0,86,0.00,,,0.00,Wunderground v.1.15,2013-01-03 14:02:00,
2013-01-03 08:12:00,18.8,15.3,30.53,West,281,6.0,6.0,86,0.00,,,0.00,Wunderground v.1.15,2013-01-03 14:12:00,
2013-01-03 08:22:00,18.6,15.4,30.53,WNW,303,6.0,6.0,87,0.00,,,0.00,Wunderground v.1.15,2013-01-03 14:22:00,
2013-01-03 08:32:00,18.8,15.6,30.54,WNW,298,6.0,8.0,87,0.00,,,0.00,Wunderground v.1.15,2013-01-03 14:32:00,
2013-01-03 08:42:00,19.2,16.0,30.54,NW,307,7.0,7.0,87,0.00,,,0.00,Wunderground v.1.15,2013-01-03 14:42:00,
2013-01-03 08:52:00,20.0,16.8,30.54,WNW,303,6.0,7.0,87,0.00,,,0.00,Wunderground v.1.15,2013-01-03 14:52:00,
2013-01-03 09:02:00,21.0,17.7,30.55,NW,309,7.0,8.0,87,0.00,,,0.00,Wunderground v.1.15,2013-01-03 15:02:00,
2013-01-03 09:11:00,22.3,19.0,30.56,NW,304,7.0,7.0,87,0.00,,,0.00,Wunderground v.1.15,2013-01-03 15:11:00,
2013-01-03 09:21:00,23.2,19.4,30.56,WNW,302,7.0,10.0,85,0.00,,,0.00,Wunderground v.1.15,2013-01-03 15:21:00,
2013-01-03 09:32:00,22.7,18.9,30.57,WNW,297,8.0,9.0,85,0.00,,,0.00,Wunderground v.1.15,2013-01-03 15:32:00,
2013-01-03 09:42:00,23.4,20.1,30.57,NW,310,8.0,8.0,87,0.00,,,0.00,Wunderground v.1.15,2013-01-03 15:42:00,
2013-01-03 09:51:00,23.6,19.8,30.58,WNW,285,10.0,10.0,85,0.00,,,0.00,Wunderground v.1.15,2013-01-03 15:51:00,
2013-01-03 10:01:00,23.8,20.5,30.58,NW,307,9.0,10.0,87,0.00,,,0.00,Wunderground v.1.15,2013-01-03 16:01:00,
2013-01-03 10:11:00,25.4,21.8,30.58,NW,308,10.0,13.0,86,0.00,,,0.00,Wunderground v.1.15,2013-01-03 16:11:00,
2013-01-03 10:21:00,26.1,21.9,30.58,WNW,297,10.0,10.0,84,0.00,,,0.00,Wunderground v.1.15,2013-01-03 16:21:00,
2013-01-03 10:31:00,26.6,22.7,30.58,WNW,302,9.0,12.0,85,0.00,,,0.00,Wunderground v.1.15,2013-01-03 16:31:00,
2013-01-03 10:41:00,27.3,22.8,30.59,NW,309,10.0,10.0,83,0.00,,,0.00,Wunderground v.1.15,2013-01-03 16:41:00,
2013-01-03 10:52:00,28.5,24.0,30.58,NW,311,9.0,9.0,83,0.00,,,0.00,Wunderground v.1.15,2013-01-03 16:52:00,
2013-01-03 11:02:00,29.8,24.4,30.58,NNE,29,7.0,10.0,80,0.00,,,0.00,Wunderground v.1.15,2013-01-03 17:02:00,
2013-01-03 11:12:00,29.6,23.9,30.58,NNW,332,7.0,7.0,79,0.00,,,0.00,Wunderground v.1.15,2013-01-03 17:12:00,
2013-01-03 11:22:00,30.3,24.3,30.57,North,352,7.0,10.0,78,0.00,,,0.00,Wunderground v.1.15,2013-01-03 17:22:00,
2013-01-03 11:32:00,31.2,24.8,30.57,NNE,15,8.0,9.0,77,0.00,,,0.00,Wunderground v.1.15,2013-01-03 17:32:00,
2013-01-03 11:42:00,31.4,24.1,30.56,North,350,8.0,8.0,74,0.00,,,0.00,Wunderground v.1.15,2013-01-03 17:42:00,
2013-01-03 11:52:00,32.2,24.5,30.56,NW,319,9.0,10.0,73,0.00,,,0.00,Wunderground v.1.15,2013-01-03 17:52:00,
2013-01-03 12:02:00,32.9,24.2,30.55,NNE,29,11.0,12.0,70,0.00,,,0.00,Wunderground v.1.15,2013-01-03 18:02:00,
2013-01-03 12:12:00,32.4,23.7,30.55,NW,308,9.0,9.0,70,0.00,,,0.00,Wunderground v.1.15,2013-01-03 18:12:00,
2013-01-03 12:22:00,32.5,23.8,30.55,NW,311,7.0,7.0,70,0.00,,,0.00,Wunderground v.1.15,2013-01-03 18:22:00,
2013-01-03 12:32:00,32.1,24.1,30.54,WNW,295,8.0,8.0,72,0.00,,,0.00,Wunderground v.1.15,2013-01-03 18:32:00,
2013-01-03 12:42:00,32.0,24.0,30.54,NW,318,6.0,7.0,72,0.00,,,0.00,Wunderground v.1.15,2013-01-03 18:42:00,
2013-01-03 12:52:00,32.2,24.2,30.53,North,350,7.0,7.0,72,0.00,,,0.00,Wunderground v.1.15,2013-01-03 18:52:00,
2013-01-03 13:02:00,32.4,24.0,30.53,North,10,7.0,12.0,71,0.00,,,0.00,Wunderground v.1.15,2013-01-03 19:02:00,
2013-01-03 13:12:00,32.8,23.7,30.53,NW,311,7.0,7.0,69,0.00,,,0.00,Wunderground v.1.15,2013-01-03 19:12:00,
2013-01-03 14:02:00,33.8,24.7,30.51,NW,305,7.0,7.0,69,0.00,,,0.00,Wunderground v.1.15,2013-01-03 20:02:00,
2013-01-03 14:12:00,33.8,24.4,30.51,NW,322,6.0,6.0,68,0.00,,,0.00,Wunderground v.1.15,2013-01-03 20:12:00,
2013-01-03 14:22:00,34.1,24.3,30.51,NW,306,6.0,11.0,67,0.00,,,0.00,Wunderground v.1.15,2013-01-03 20:22:00,
2013-01-03 14:32:00,33.9,24.1,30.51,North,6,7.0,9.0,67,0.00,,,0.00,Wunderground v.1.15,2013-01-03 20:32:00,
2013-01-03 14:41:00,34.0,24.2,30.51,NW,323,6.0,11.0,67,0.00,,,0.00,Wunderground v.1.15,2013-01-03 20:41:00,
2013-01-03 14:51:00,34.2,23.7,30.51,ENE,68,6.0,6.0,65,0.00,,,0.00,Wunderground v.1.15,2013-01-03 20:51:00,
2013-01-03 15:01:00,34.5,24.7,30.51,NNW,336,6.0,6.0,67,0.00,,,0.00,Wunderground v.1.15,2013-01-03 21:01:00,
2013-01-03 15:11:00,34.7,23.4,30.52,WNW,283,5.0,6.0,63,0.00,,,0.00,Wunderground v.1.15,2013-01-03 21:11:00,
2013-01-03 15:21:00,34.8,23.9,30.52,WNW,293,4.0,6.0,64,0.00,,,0.00,Wunderground v.1.15,2013-01-03 21:21:00,
2013-01-03 15:31:00,35.1,24.1,30.52,WNW,299,6.0,7.0,64,0.00,,,0.00,Wunderground v.1.15,2013-01-03 21:31:00,
2013-01-03 15:51:00,34.1,22.4,30.52,WNW,290,6.0,6.0,62,0.00,,,0.00,Wunderground v.1.15,2013-01-03 21:51:00,
2013-01-03 16:01:00,33.3,21.7,30.52,WNW,284,5.0,5.0,62,0.00,,,0.00,Wunderground v.1.15,2013-01-03 22:01:00,
2013-01-03 16:11:00,33.5,23.0,30.52,WNW,297,3.0,3.0,65,0.00,,,0.00,Wunderground v.1.15,2013-01-03 22:11:00,
2013-01-03 16:22:00,34.5,22.8,30.52,WNW,295,4.0,4.0,62,0.00,,,0.00,Wunderground v.1.15,2013-01-03 22:22:00,
2013-01-03 16:32:00,34.8,22.7,30.52,WNW,295,3.0,3.0,61,0.00,,,0.00,Wunderground v.1.15,2013-01-03 22:32:00,
2013-01-03 16:42:00,34.9,22.0,30.52,NNW,340,2.0,3.0,59,0.00,,,0.00,Wunderground v.1.15,2013-01-03 22:42:00,
2013-01-03 16:51:00,34.7,22.2,30.52,NW,310,3.0,3.0,60,0.00,,,0.00,Wunderground v.1.15,2013-01-03 22:51:00,
2013-01-03 17:02:00,34.5,22.0,30.53,WNW,300,1.0,1.0,60,0.00,,,0.00,Wunderground v.1.15,2013-01-03 23:02:00,
2013-01-03 17:12:00,33.9,22.2,30.53,NW,308,2.0,2.0,62,0.00,,,0.00,Wunderground v.1.15,2013-01-03 23:12:00,
2013-01-03 17:22:00,33.1,22.2,30.53,WNW,284,1.0,1.0,64,0.00,,,0.00,Wunderground v.1.15,2013-01-03 23:22:00,
2013-01-03 17:32:00,32.1,22.0,30.53,WNW,283,1.0,1.0,66,0.00,,,0.00,Wunderground v.1.15,2013-01-03 23:32:00,
2013-01-03 17:42:00,31.2,21.9,30.53,WNW,283,0.0,1.0,68,0.00,,,0.00,Wunderground v.1.15,2013-01-03 23:42:00,
2013-01-03 17:52:00,30.7,21.7,30.53,WNW,287,1.0,2.0,69,0.00,,,0.00,Wunderground v.1.15,2013-01-03 23:52:00,
2013-01-03 18:02:00,30.7,21.7,30.54,NW,315,2.0,2.0,69,0.00,,,0.00,Wunderground v.1.15,2013-01-04 00:02:00,
2013-01-03 18:12:00,30.4,22.1,30.54,North,8,1.0,2.0,71,0.00,,,0.00,Wunderground v.1.15,2013-01-04 00:12:00,
2013-01-03 18:22:00,29.7,22.1,30.54,NNE,22,2.0,2.0,73,0.00,,,0.00,Wunderground v.1.15,2013-01-04 00:22:00,
2013-01-03 18:32:00,30.1,21.8,30.54,NNE,18,1.0,1.0,71,0.00,,,0.00,Wunderground v.1.15,2013-01-04 00:32:00,
2013-01-03 18:42:00,29.9,22.0,30.54,North,6,1.0,2.0,72,0.00,,,0.00,Wunderground v.1.15,2013-01-04 00:42:00,
2013-01-03 18:52:00,29.9,22.0,30.54,NNW,327,1.0,1.0,72,0.00,,,0.00,Wunderground v.1.15,2013-01-04 00:52:00,
2013-01-03 19:01:00,29.9,22.0,30.54,NNW,327,1.0,1.0,72,0.00,,,0.00,Wunderground v.1.15,2013-01-04 01:01:00,
2013-01-03 19:11:00,29.4,21.8,30.54,NNW,327,0.0,0.0,73,0.00,,,0.00,Wunderground v.1.15,2013-01-04 01:11:00,
2013-01-03 19:21:00,29.0,21.4,30.54,NNW,327,0.0,0.0,73,0.00,,,0.00,Wunderground v.1.15,2013-01-04 01:21:00,
2013-01-03 19:32:00,28.1,21.5,30.54,NNW,328,0.0,0.0,76,0.00,,,0.00,Wunderground v.1.15,2013-01-04 01:32:00,
2013-01-03 19:41:00,28.5,21.9,30.54,NNW,328,0.0,0.0,76,0.00,,,0.00,Wunderground v.1.15,2013-01-04 01:41:00,
2013-01-03 19:51:00,28.5,21.3,30.54,NNW,328,0.0,0.0,74,0.00,,,0.00,Wunderground v.1.15,2013-01-04 01:51:00,
2013-01-03 20:01:00,27.2,20.6,30.54,NNW,329,0.0,0.0,76,0.00,,,0.00,Wunderground v.1.15,2013-01-04 02:01:00,
2013-01-03 20:11:00,26.2,20.3,30.54,NNW,328,0.0,0.0,78,0.00,,,0.00,Wunderground v.1.15,2013-01-04 02:11:00,
2013-01-03 20:21:00,24.8,19.5,30.54,NNW,328,0.0,0.0,80,0.00,,,0.00,Wunderground v.1.15,2013-01-04 02:21:00,
2013-01-03 20:31:00,23.8,19.1,30.54,NNW,329,0.0,0.0,82,0.00,,,0.00,Wunderground v.1.15,2013-01-04 02:31:00,
2013-01-03 20:42:00,25.0,21.1,30.54,NNW,329,0.0,0.0,85,0.00,,,0.00,Wunderground v.1.15,2013-01-04 02:42:00,
2013-01-03 20:52:00,25.3,20.6,30.54,NNW,329,0.0,0.0,82,0.00,,,0.00,Wunderground v.1.15,2013-01-04 02:52:00,
2013-01-03 21:02:00,25.0,20.6,30.53,NNW,328,0.0,0.0,83,0.00,,,0.00,Wunderground v.1.15,2013-01-04 03:02:00,
2013-01-03 21:12:00,25.5,21.1,30.53,NNW,329,0.0,0.0,83,0.00,,,0.00,Wunderground v.1.15,2013-01-04 03:12:00,
2013-01-03 21:22:00,25.9,21.2,30.53,NNW,329,0.0,0.0,82,0.00,,,0.00,Wunderground v.1.15,2013-01-04 03:22:00,
2013-01-03 21:32:00,26.2,21.2,30.53,NW,326,0.0,0.0,81,0.00,,,0.00,Wunderground v.1.15,2013-01-04 03:32:00,
2013-01-03 21:42:00,26.4,21.1,30.53,NW,325,0.0,0.0,80,0.00,,,0.00,Wunderground v.1.15,2013-01-04 03:42:00,
2013-01-03 21:52:00,26.2,20.9,30.52,NW,325,0.0,0.0,80,0.00,,,0.00,Wunderground v.1.15,2013-01-04 03:52:00,
2013-01-03 22:02:00,26.3,21.0,30.52,NW,325,0.0,0.0,80,0.00,,,0.00,Wunderground v.1.15,2013-01-04 04:02:00,
2013-01-03 22:12:00,25.5,20.2,30.52,NW,325,0.0,0.0,80,0.00,,,0.00,Wunderground v.1.15,2013-01-04 04:12:00,
2013-01-03 22:22:00,24.6,19.9,30.52,NW,325,0.0,0.0,82,0.00,,,0.00,Wunderground v.1.15,2013-01-04 04:22:00,
2013-01-03 22:32:00,24.0,19.9,30.52,NW,325,0.0,0.0,84,0.00,,,0.00,Wunderground v.1.15,2013-01-04 04:32:00,
2013-01-03 22:42:00,24.1,20.0,30.52,NW,305,0.0,0.0,84,0.00,,,0.00,Wunderground v.1.15,2013-01-04 04:42:00,
2013-01-03 22:51:00,24.4,20.5,30.52,WNW,290,0.0,0.0,85,0.00,,,0.00,Wunderground v.1.15,2013-01-04 04:51:00,
2013-01-03 23:02:00,24.6,20.5,30.53,WNW,291,0.0,0.0,84,0.00,,,0.00,Wunderground v.1.15,2013-01-04 05:02:00,
2013-01-03 23:12:00,24.7,20.3,30.53,WNW,291,0.0,0.0,83,0.00,,,0.00,Wunderground v.1.15,2013-01-04 05:12:00,
2013-01-03 23:21:00,24.6,20.2,30.53,WNW,291,0.0,0.0,83,0.00,,,0.00,Wunderground v.1.15,2013-01-04 05:21:00,
2013-01-03 23:31:00,24.3,20.2,30.53,WNW,291,0.0,0.0,84,0.00,,,0.00,Wunderground v.1.15,2013-01-04 05:31:00,
2013-01-03 23:41:00,24.1,20.0,30.54,WNW,283,0.0,0.0,84,0.00,,,0.00,Wunderground v.1.15,2013-01-04 05:41:00,
2013-01-03 23:51:00,23.4,19.6,30.53,WSW,249,0.0,2.0,85,0.00,,,0.00,Wunderground v.1.15,2013-01-04 05:51:00,